User: anonymous   Login
Location: Scenic Heights
(38.0166°N, 120.2566°W)
Time: 23:28:37
(UTC+00:00)
Language:

BREEZE-M DEB (TANK) - Orbit

View from above orbital plane
View from above orbital plane
View from above satellite
View from above satellite

Ground track
Ground track

The orbit data is extracted from the following two-line orbital elements,

1 36794U 10034C   24282.30793342  .00010323  00000-0  30551-2 0  9991
2 36794  49.5109 301.7629 5442967 112.8796 312.0139  4.86535786245347
Epoch (UTC): 08 October 2024 07:23:25
Eccentricity: 0.5442967
inclination: 49.5109°
perigee height: 326 km
apogee height: 16341 km
right ascension of ascending node: 301.7629°
argument of perigee: 112.8796°
revolutions per day: 4.86535786
mean anomaly at epoch: 312.0139°
orbit number at epoch: 24534

The dashed part of the orbit path shows where the satellite is in the earth's shadow,  

DLR